Location: Poigny-la-Forêt
(48.6876°N, 1.7701°E)
Time: 09:10:33
(UTC+01:00)

ISS - Pass Details

Date: 30 October 2019
Orbit: 412 x 421 km, 51.6° (Epoch: 18 November)

Event Time Altitude Azimuth Distance (km) Brightness Sun altitude
Exits shadow 05:44:03 59° 216° (SW) 494 -3.7 -18.9°
Maximum altitude 05:44:33 73° 156° (SSE) 444 -3.7 -18.8°
Drops below altitude 10° 05:47:56 10° 71° (ENE) 1,509 0.1 -18.2°
Sets 05:50:02 0° 69° (ENE) 2,374 1.4 -17.9°
